NANOSATC-BR1 (40024 NORAD) Tracking and Keplerian Element Data

This shows tracking and keplerian element data for the satellite.

Feedback or suggestion? Click here.




ElementValue
Catalog40024
NameNANOSATC-BR1
Epoch Orbit26735
Epoch Day145.72796714
Epoch Year2019
RAAN67.7261
Inclination97.9138
Eccentricity0.0013283
Argument of Perigee127.9299
Mean Anonmoly232.3121
Mean Motion14.89826339
Decay Rate2.76E-06
L11 40024U 14033Q 19145.72796714 .00000276 00000-0 34693-4 0 9998
L22 40024 97.9138 67.7261 0013283 127.9299 232.3121 14.89826339267354

Live tracking and technical data element details for NANOSATC-BR1 (NORAD 40024). NANOSATC-BR1 can be tracked NOW for your location showing map with azimuth and elevation plus other details from your city location.

Track the satellite on the map from your city or location and see movement details for azimuth, elevation, latitude, longitude, range, height, and movement on the map or in text.







IsCatalogInMostPopularTable: catalog: 40024, numindb: 207
Update: records affected: 1



GetName: 40024 NANOSATC-BR1

Hit Count: updated at: Sun, 26 May 2019 19:16:23 GMT